| time (UTC) | temp C | wind direction | speed KPH | gust KPH | rain 1hr cm | rain 24hr cm | rain mn cm | humidity % | barometer mb |
| 20260502190041 | 17 | 206 | 6.4 | 16.1 | 0.00 | 0.00 | 0.00 | 20 | 1017.9 |
| 20260502184547 | 17 | 168 | 11.3 | 22.5 | 0.00 | 0.00 | 0.00 | 20 | 1018.2 |
| 20260502183054 | 17 | 139 | 11.3 | 17.7 | 0.00 | 0.00 | 0.00 | 21 | 1018.5 |
| 20260502181540 | 17 | 112 | 8.0 | 14.5 | 0.00 | 0.00 | 0.00 | 21 | 1018.7 |
| 20260502163016 | 15 | 330 | 8.0 | 14.5 | 0.00 | 0.00 | 0.00 | 24 | 1019.6 |
| 20260502161511 | 15 | 215 | 6.4 | 12.9 | 0.00 | 0.00 | 0.00 | 31 | 1019.6 |
| 20260502151605 | 12 | 253 | 4.8 | 14.5 | 0.00 | 0.00 | 0.00 | 44 | 1020.1 |
| 20260502123025 | 3 | 297 | 3.2 | 9.7 | 0.00 | 0.00 | 0.00 | 73 | 1020.6 |
| 20260502121517 | 3 | 325 | 1.6 | 6.4 | 0.00 | 0.00 | 0.00 | 74 | 1020.6 |
| 20260502114516 | 3 | 294 | 0.0 | 0.0 | 0.00 | 0.00 | 0.00 | 75 | 1020.5 |
| 20260502113015 | 3 | 294 | 0.0 | 0.0 | 0.00 | 0.00 | 0.00 | 75 | 1020.3 |
| 20260502111518 | 3 | 294 | 0.0 | 6.4 | 0.00 | 0.00 | 0.00 | 74 | 1020.4 |
| 20260502110014 | 3 | 294 | 1.6 | 6.4 | 0.00 | 0.00 | 0.00 | 74 | 1020.3 |
| 20260502104511 | 3 | 302 | 3.2 | 8.0 | 0.00 | 0.00 | 0.00 | 74 | 1020.3 |
| 20260502103009 | 3 | 333 | 1.6 | 8.0 | 0.00 | 0.00 | 0.00 | 76 | 1020.3 |
| 20260502101507 | 3 | 296 | 1.6 | 8.0 | 0.00 | 0.00 | 0.00 | 75 | 1020.1 |
| 20260502090113 | 5 | 302 | 0.0 | 4.8 | 0.00 | 0.00 | 0.00 | 75 | 1019.8 |
| 20260502070042 | 5 | 305 | 0.0 | 3.2 | 0.00 | 0.00 | 0.00 | 75 | 1019.7 |
| 20260502064540 | 6 | 305 | 0.0 | 3.2 | 0.00 | 0.00 | 0.00 | 73 | 1019.7 |
| 20260502063038 | 6 | 305 | 1.6 | 9.7 | 0.00 | 0.00 | 0.00 | 73 | 1019.7 |
| 20260502061534 | 6 | 265 | 0.0 | 1.6 | 0.00 | 0.00 | 0.00 | 72 | 1019.7 |
| 20260502060032 | 6 | 265 | 0.0 | 8.0 | 0.00 | 0.03 | 0.00 | 71 | 1019.7 |
| 20260502054532 | 7 | 297 | 0.0 | 6.4 | 0.00 | 0.03 | 0.00 | 70 | 1019.6 |
| 20260502053031 | 6 | 266 | 0.0 | 0.0 | 0.00 | 0.03 | 0.00 | 70 | 1019.4 |
| 20260502051535 | 7 | 266 | 0.0 | 1.6 | 0.00 | 0.03 | 0.00 | 69 | 1019.3 |
| 20260502050037 | 7 | 182 | 0.0 | 1.6 | 0.00 | 0.10 | 0.00 | 71 | 1019.3 |
| 20260502044531 | 7 | 182 | 0.0 | 0.0 | 0.00 | 0.10 | 0.00 | 70 | 1019.3 |
| 20260502043030 | 7 | 182 | 0.0 | 0.0 | 0.00 | 0.10 | 0.00 | 70 | 1019.2 |
| 20260502041542 | 7 | 182 | 0.0 | 0.0 | 0.00 | 0.10 | 0.00 | 67 | 1019.3 |
| 20260502040029 | 8 | 182 | 0.0 | 0.0 | 0.00 | 0.13 | 0.00 | 66 | 1019.3 |
| 20260502034529 | 8 | 182 | 0.0 | 3.2 | 0.00 | 0.13 | 0.00 | 64 | 1019.2 |
| 20260502033030 | 8 | 142 | 1.6 | 4.8 | 0.00 | 0.13 | 0.00 | 63 | 1019.1 |
| 20260502031528 | 9 | 142 | 0.0 | 0.0 | 0.00 | 0.13 | 0.00 | 60 | 1018.9 |
| 20260502030027 | 9 | 142 | 0.0 | 0.0 | 0.00 | 0.15 | 0.00 | 56 | 1018.7 |
| 20260502024527 | 10 | 142 | 0.0 | 0.0 | 0.00 | 0.15 | 0.00 | 56 | 1018.5 |
| 20260502023027 | 11 | 142 | 0.0 | 1.6 | 0.00 | 0.15 | 0.00 | 51 | 1018.3 |
| 20260502021527 | 11 | 142 | 0.0 | 4.8 | 0.00 | 0.15 | 0.00 | 47 | 1018.1 |
| 20260502020025 | 12 | 142 | 0.0 | 1.6 | 0.00 | 0.25 | 0.00 | 44 | 1018.0 |
| 20260502014528 | 12 | 142 | 1.6 | 4.8 | 0.00 | 0.25 | 0.00 | 41 | 1017.9 |
| 20260502013025 | 12 | 142 | 1.6 | 6.4 | 0.00 | 0.25 | 0.00 | 40 | 1017.8 |
| 20260502011525 | 13 | 164 | 4.8 | 8.0 | 0.00 | 0.25 | 0.00 | 38 | 1017.6 |
| 20260502010025 | 13 | 65 | 1.6 | 8.0 | 0.00 | 0.30 | 0.00 | 37 | 1017.7 |
| 20260502004524 | 13 | 92 | 6.4 | 14.5 | 0.00 | 0.30 | 0.00 | 37 | 1017.6 |
| 20260502003022 | 13 | 45 | 0.0 | 12.9 | 0.00 | 0.30 | 0.00 | 36 | 1017.6 |
| 20260502001523 | 14 | 77 | 3.2 | 8.0 | 0.00 | 0.30 | 0.00 | 37 | 1017.5 |
| 20260502000020 | 13 | 59 | 4.8 | 12.9 | 0.00 | 0.41 | 0.00 | 37 | 1017.5 |
| 20260501234520 | 13 | 74 | 1.6 | 14.5 | 0.00 | 0.41 | 0.00 | 36 | 1017.5 |
| 20260501233020 | 14 | 74 | 3.2 | 12.9 | 0.00 | 0.41 | 0.00 | 36 | 1017.5 |
| 20260501231518 | 13 | 217 | 8.0 | 12.9 | 0.00 | 0.41 | 0.00 | 38 | 1017.6 |
| 20260501230015 | 13 | 240 | 8.0 | 11.3 | 0.00 | 0.51 | 0.00 | 38 | 1017.8 |
| 20260501224514 | 13 | 194 | 0.0 | 12.9 | 0.00 | 0.51 | 0.00 | 39 | 1017.9 |
| 20260501223013 | 12 | 117 | 0.0 | 9.7 | 0.00 | 0.51 | 0.00 | 41 | 1018.0 |
| 20260501221511 | 12 | 81 | 0.0 | 11.3 | 0.00 | 0.51 | 0.00 | 39 | 1018.2 |
| 20260501220010 | 13 | 59 | 0.0 | 6.4 | 0.00 | 0.56 | 0.00 | 38 | 1018.3 |
| 20260501214509 | 13 | 9 | 1.6 | 11.3 | 0.00 | 0.56 | 0.00 | 38 | 1018.4 |
| 20260501213008 | 13 | 157 | 6.4 | 14.5 | 0.00 | 0.56 | 0.00 | 38 | 1018.5 |
| 20260501211508 | 13 | 277 | 4.8 | 12.9 | 0.00 | 0.56 | 0.00 | 39 | 1018.7 |
| 20260501210003 | 13 | 232 | 4.8 | 9.7 | 0.00 | 0.56 | 0.00 | 39 | 1018.9 |
| 20260501204500 | 13 | 208 | 4.8 | 9.7 | 0.00 | 0.56 | 0.00 | 39 | 1019.1 |
| 20260501203059 | 12 | 174 | 6.4 | 11.3 | 0.00 | 0.56 | 0.00 | 41 | 1019.2 |
| 20260501201607 | 12 | 114 | 3.2 | 11.3 | 0.00 | 0.56 | 0.00 | 39 | 1019.5 |
| 20260501200054 | 12 | 196 | 0.0 | 8.0 | 0.00 | 0.56 | 0.00 | 37 | 1019.7 |
| 20260501194555 | 12 | 298 | 4.8 | 11.3 | 0.00 | 0.56 | 0.00 | 39 | 1019.7 |
| 20260501193052 | 12 | 148 | 1.6 | 14.5 | 0.00 | 0.56 | 0.00 | 41 | 1019.8 |
| 20260501191555 | 11 | 144 | 1.6 | 9.7 | 0.00 | 0.56 | 0.00 | 41 | 1020.1 |